Flag for Australia Weather past 2 weeks in Sydney, New South Wales, Australia

Now
61 °F

Sunny.


Feels Like: 61 °F
Forecast: 44 / 59 °F
Wind: 21 mph from West

Location: Sydney Airport

Current Time: Aug 5, 2015 at 4:58:29 PM

Latest Report: Aug 5, 2015 at 4:00 PM


Visibility: 10 mi

Pressure: 29.83 "Hg

Humidity: 31%

Dew point: 30 °F

Location of SydneyLocation

Historic Weather in Sydney — Graph

°F

Sydney temperature yesterday

Maximum temperature yesterday: 59 °F (at 2:30 PM)
Minimum temperature yesterday: 46 °F (at 11:00 PM)
Average temperature yesterday: 52 °F

Past Weeks' High & Low Weather Summary

 TemperatureHumidityPressure
High77 °F (Aug 2, 3:00 PM)94% (Jul 23, 6:00 AM)30.54 "Hg (Jul 23, 6:00 AM)
Low43 °F (Aug 5, 1:00 AM)20% (Aug 1, 2:00 PM)29.80 "Hg (Aug 2, 3:00 PM)
Average57 °F55%30.15 "Hg
* Reported Jul 21 4:00 PM — Aug 5 4:00 PM, Sydney, Weather by CustomWeather, © 2015

Note: Actual official high and low records may vary slightly from our data, if they occured in-between our weather recording intervals... More about our weather records

Advertising

Sydney weather history for previous 24 hours

 ConditionsComfort  
Time TempWeatherWind HumidityBarometerVisibility
4:00 PM
Wed, Aug 5
61 °FSunny.21 mph31%29.83 "Hg10 mi
3:00 PM57 °FSunny.18 mph36%29.83 "Hg10 mi
2:30 PM57 °FSunny.18 mph39%29.83 "Hg10 mi
2:00 PM57 °FSunny.17 mph36%29.83 "Hg10 mi
1:00 PM57 °FSunny.12 mph36%29.86 "Hg10 mi
12:30 PM55 °FSunny.14 mph36%29.86 "Hg10 mi
12:00 PM54 °FSunny.12 mph38%29.89 "Hg10 mi
11:30 AM55 °FSunny.13 mph36%29.89 "Hg10 mi
11:00 AM54 °FSunny.13 mph35%29.92 "Hg10 mi
10:30 AM55 °FSunny.16 mph31%29.92 "Hg10 mi
10:00 AM54 °FSunny.16 mph33%29.92 "Hg10 mi
9:30 AM52 °FSunny.18 mph35%29.95 "Hg10 mi
9:00 AM50 °FSunny.15 mph37%29.95 "Hg10 mi
8:00 AM48 °FSunny.13 mph40%29.95 "Hg10 mi
7:30 AM45 °FSunny.14 mph46%29.95 "Hg10 mi
6:30 AM45 °FSunny.7 mph49%29.95 "Hg10 mi
6:00 AM43 °FSunny.10 mph53%29.95 "Hg10 mi
5:30 AM43 °FClear.12 mph53%29.98 "Hg10 mi
4:30 AM45 °FClear.9 mph49%29.98 "Hg10 mi
4:00 AM43 °FClear.10 mph53%29.98 "Hg10 mi
3:30 AM43 °FClear.13 mph53%29.98 "Hg10 mi
3:00 AM43 °FClear.9 mph53%29.98 "Hg10 mi
2:30 AM45 °FClear.9 mph49%29.98 "Hg10 mi
2:00 AM45 °FClear.10 mph49%30.01 "Hg10 mi
1:30 AM45 °FClear.9 mph49%30.01 "Hg10 mi
1:00 AM43 °FClear.12 mph57%30.01 "Hg10 mi
12:30 AM45 °FClear.10 mph49%30.01 "Hg10 mi
12:00 AM45 °FClear.9 mph53%30.04 "Hg10 mi
11:30 PM
Tue, Aug 4
46 °FClear.15 mph46%30.04 "Hg10 mi
11:00 PM46 °FClear.8 mph46%30.04 "Hg10 mi
10:30 PM48 °FClear.10 mph43%30.04 "Hg10 mi
10:00 PM48 °FClear.13 mph43%30.07 "Hg10 mi
9:00 PM50 °FClear.15 mph40%30.07 "Hg10 mi
8:30 PM50 °FClear.15 mph50%30.07 "Hg10 mi
8:00 PM54 °FClear.9 mph54%30.07 "Hg10 mi
7:30 PM54 °FClear.10 mph51%30.07 "Hg10 mi
7:00 PM55 °FClear.9 mph47%30.07 "Hg10 mi
6:30 PM55 °FClear.7 mph47%30.07 "Hg10 mi
6:00 PM57 °FClear.9 mph41%30.07 "Hg10 mi
5:30 PM57 °FClear.10 mph39%30.07 "Hg10 mi
5:00 PM57 °FClear.10 mph39%30.07 "Hg10 mi
4:30 PM59 °FClear.13 mph34%30.07 "Hg10 mi
4:00 PM59 °FScattered clouds.12 mph36%30.07 "HgN/A
Weather by CustomWeather, © 2015

See weather overviewHow to use our weather pages